TimeCDT,TemperatureF,Dew PointF,Humidity,Sea Level PressureIn,VisibilityMPH,Wind Direction,Wind SpeedMPH,Gust SpeedMPH,PrecipitationIn,Events,Conditions,WindDirDegrees,DateUTC
12:15 AM,45.1,44.8,99,30.02,2.0,Calm,Calm,-,N/A,,Clear,0,2013-09-30 05:15:00
12:35 AM,42.8,41.9,97,30.02,3.0,Calm,Calm,-,N/A,,Clear,0,2013-09-30 05:35:00
12:55 AM,43.7,43.0,97,30.02,4.0,Calm,Calm,-,N/A,,Clear,0,2013-09-30 05:55:00
1:15 AM,45.3,45.0,99,30.02,7.0,Calm,Calm,-,N/A,,Clear,0,2013-09-30 06:15:00
1:35 AM,44.6,44.1,98,30.02,0.5,Calm,Calm,-,N/A,Fog,Fog,0,2013-09-30 06:35:00
1:55 AM,44.6,44.1,98,30.02,0.5,Calm,Calm,-,N/A,Fog,Fog,0,2013-09-30 06:55:00
2:15 AM,43.9,43.5,99,30.01,0.2,Calm,Calm,-,N/A,Fog,Fog,0,2013-09-30 07:15:00
2:35 AM,44.1,43.9,99,30.01,0.2,Calm,Calm,-,N/A,Fog,Fog,0,2013-09-30 07:35:00
2:55 AM,43.7,43.3,99,30.00,0.2,Calm,Calm,-,N/A,Fog,Fog,0,2013-09-30 07:55:00
3:15 AM,43.3,43.0,99,30.00,5.0,Calm,Calm,-,N/A,,Scattered Clouds,0,2013-09-30 08:15:00
3:35 AM,43.2,43.0,99,30.00,0.2,Calm,Calm,-,N/A,Fog,Fog,0,2013-09-30 08:35:00
3:55 AM,43.3,43.2,99,30.00,0.2,Calm,Calm,-,N/A,Fog,Fog,0,2013-09-30 08:55:00
4:15 AM,41.9,41.9,100,30.00,0.5,Calm,Calm,-,N/A,Fog,Fog,0,2013-09-30 09:15:00
4:35 AM,42.1,41.9,99,30.00,0.5,Calm,Calm,-,N/A,Fog,Fog,0,2013-09-30 09:35:00
4:55 AM,41.2,41.0,99,30.00,0.2,Calm,Calm,-,N/A,Fog,Fog,0,2013-09-30 09:55:00
5:15 AM,42.3,42.1,99,30.02,0.5,Calm,Calm,-,N/A,Fog,Fog,0,2013-09-30 10:15:00
5:35 AM,41.5,41.5,100,30.02,0.8,Calm,Calm,-,N/A,,Mostly Cloudy,0,2013-09-30 10:35:00
5:55 AM,39.7,39.6,99,30.02,7.0,Calm,Calm,-,N/A,,Scattered Clouds,0,2013-09-30 10:55:00
6:15 AM,41.4,41.2,99,30.03,-9999.0,Calm,Calm,-,N/A,,Mostly Cloudy,0,2013-09-30 11:15:00
6:35 AM,40.3,40.1,99,30.02,0.2,Calm,Calm,-,N/A,Fog,Fog,0,2013-09-30 11:35:00
6:55 AM,39.7,39.7,100,30.02,5.0,Calm,Calm,-,N/A,,Scattered Clouds,0,2013-09-30 11:55:00
7:15 AM,40.8,40.6,99,30.03,0.5,Calm,Calm,-,N/A,Fog,Fog,0,2013-09-30 12:15:00
7:35 AM,44.4,44.2,99,30.03,1.2,Calm,Calm,-,N/A,,Overcast,0,2013-09-30 12:35:00
7:55 AM,46.8,46.6,99,30.02,5.0,Calm,Calm,-,N/A,,Scattered Clouds,0,2013-09-30 12:55:00
8:15 AM,49.5,48.7,97,30.02,7.0,Calm,Calm,-,N/A,,Clear,0,2013-09-30 13:15:00
8:35 AM,52.2,50.9,95,30.02,7.0,Calm,Calm,-,N/A,,Clear,0,2013-09-30 13:35:00
8:55 AM,54.0,51.4,91,30.02,10.0,Calm,Calm,-,N/A,,Clear,0,2013-09-30 13:55:00
9:15 AM,56.5,52.9,88,30.02,10.0,SE,3.5,-,N/A,,Clear,140,2013-09-30 14:15:00
9:35 AM,58.1,52.9,83,30.02,10.0,Calm,Calm,-,N/A,,Clear,0,2013-09-30 14:35:00
9:55 AM,59.5,52.7,78,30.02,10.0,ESE,4.6,-,N/A,,Clear,110,2013-09-30 14:55:00
10:15 AM,61.0,52.3,73,30.01,10.0,East,4.6,-,N/A,,Clear,100,2013-09-30 15:15:00
10:35 AM,64.0,51.3,63,30.02,10.0,ESE,4.6,-,N/A,,Clear,120,2013-09-30 15:35:00
10:55 AM,65.8,50.2,57,30.01,10.0,SSE,4.6,-,N/A,,Clear,150,2013-09-30 15:55:00
11:15 AM,66.7,48.4,52,30.00,10.0,South,3.5,-,N/A,,Clear,190,2013-09-30 16:15:00
11:35 AM,68.4,49.3,50,29.99,10.0,South,6.9,-,N/A,,Clear,170,2013-09-30 16:35:00
11:55 AM,69.4,50.7,51,29.99,10.0,SSE,5.8,-,N/A,,Clear,150,2013-09-30 16:55:00
12:15 PM,71.4,49.5,46,29.99,10.0,SSE,5.8,-,N/A,,Clear,150,2013-09-30 17:15:00
12:35 PM,71.2,48.7,45,29.98,10.0,South,8.1,-,N/A,,Clear,170,2013-09-30 17:35:00
12:55 PM,72.5,51.4,47,29.97,10.0,South,10.4,-,N/A,,Clear,170,2013-09-30 17:55:00
1:15 PM,73.6,51.8,46,29.95,10.0,SSW,9.2,-,N/A,,Clear,200,2013-09-30 18:15:00
1:35 PM,74.1,51.4,45,29.95,10.0,South,8.1,-,N/A,,Clear,190,2013-09-30 18:35:00
1:55 PM,74.3,50.7,43,29.94,10.0,SSW,10.4,-,N/A,,Clear,210,2013-09-30 18:55:00
2:15 PM,74.5,52.0,45,29.94,10.0,SSW,9.2,-,N/A,,Clear,210,2013-09-30 19:15:00
2:35 PM,75.6,53.4,46,29.93,10.0,SW,5.8,-,N/A,,Clear,230,2013-09-30 19:35:00
2:55 PM,75.7,54.1,47,29.92,10.0,SSW,12.7,-,N/A,,Clear,210,2013-09-30 19:55:00
3:15 PM,75.7,50.0,40,29.92,10.0,South,9.2,-,N/A,,Clear,180,2013-09-30 20:15:00
3:35 PM,75.9,50.9,41,29.91,10.0,South,10.4,16.1,N/A,,Clear,190,2013-09-30 20:35:00
3:55 PM,75.4,50.4,41,29.90,10.0,South,9.2,-,N/A,,Clear,170,2013-09-30 20:55:00
4:15 PM,75.2,48.7,39,29.91,10.0,SW,9.2,16.1,N/A,,Clear,230,2013-09-30 21:15:00
4:35 PM,74.7,49.6,41,29.90,10.0,SW,8.1,-,N/A,,Clear,220,2013-09-30 21:35:00
4:55 PM,75.7,52.7,45,29.91,10.0,SSW,6.9,-,N/A,,Clear,200,2013-09-30 21:55:00
5:15 PM,75.6,52.9,45,29.90,10.0,SSE,8.1,-,N/A,,Clear,160,2013-09-30 22:15:00
5:35 PM,74.7,52.3,46,29.91,10.0,SSW,6.9,-,N/A,,Clear,210,2013-09-30 22:35:00
5:55 PM,73.4,52.9,49,29.91,10.0,South,4.6,-,N/A,,Clear,170,2013-09-30 22:55:00
6:15 PM,71.6,54.1,54,29.91,10.0,South,4.6,-,N/A,,Clear,170,2013-09-30 23:15:00
6:35 PM,70.0,53.8,56,29.91,10.0,SSE,4.6,-,N/A,,Clear,160,2013-09-30 23:35:00
6:55 PM,68.2,53.6,60,29.91,10.0,SSE,4.6,-,N/A,,Clear,160,2013-09-30 23:55:00
7:15 PM,64.6,53.1,66,29.91,10.0,SSE,4.6,-,N/A,,Clear,160,2013-10-01 00:15:00
7:35 PM,61.2,52.9,74,29.92,10.0,South,5.8,-,N/A,,Clear,170,2013-10-01 00:35:00
7:55 PM,59.0,52.7,80,29.92,10.0,South,5.8,-,N/A,,Clear,180,2013-10-01 00:55:00
8:15 PM,60.4,52.9,76,29.92,10.0,SSW,4.6,-,N/A,,Clear,200,2013-10-01 01:15:00
8:35 PM,61.7,52.7,72,29.93,10.0,SSW,5.8,-,N/A,,Clear,200,2013-10-01 01:35:00
8:55 PM,61.9,53.1,73,29.92,10.0,SSW,5.8,-,N/A,,Clear,210,2013-10-01 01:55:00
9:15 PM,62.1,53.1,72,29.93,10.0,SSW,5.8,-,N/A,,Clear,210,2013-10-01 02:15:00
9:35 PM,61.7,53.4,74,29.93,10.0,SSW,5.8,-,N/A,,Clear,210,2013-10-01 02:35:00
9:55 PM,61.2,53.2,75,29.93,10.0,South,6.9,-,N/A,,Clear,180,2013-10-01 02:55:00
10:15 PM,58.5,52.2,80,29.93,10.0,South,3.5,-,N/A,,Clear,190,2013-10-01 03:15:00
10:35 PM,59.0,53.1,81,29.93,10.0,South,6.9,-,N/A,,Clear,190,2013-10-01 03:35:00
10:55 PM,58.1,53.2,84,29.94,10.0,South,5.8,-,N/A,,Clear,190,2013-10-01 03:55:00
11:15 PM,57.6,53.6,87,29.94,10.0,South,6.9,-,N/A,,Clear,180,2013-10-01 04:15:00
11:35 PM,58.5,54.7,87,29.94,10.0,South,6.9,-,N/A,,Clear,190,2013-10-01 04:35:00
11:55 PM,59.0,55.4,88,29.94,10.0,South,6.9,-,N/A,,Clear,180,2013-10-01 04:55:00